Griffiss International Airport
KRME : now visible

Airfield :











YOU CAN JOIN US ON...

 
LOGIN :

Register | Disclaimer

   EN    FR    IT 

 









Legend :    VFR   Marginal VFR   IFR   Intensive IFR   Very Intensive IFR
Visi :
Ceiling :
>= 8 km
>= 3000ft
5 to 8 km
1000 to 3000 ft
1500m to 5 km
500 to 1000 ft
800 to 1500m
200 to 500 ft
< 800m
< 200 ft
Symbols :   Thunderstorms  Fog  Heavy snow  Heavy precipitations  Wind > 20 kt






- Airport Elevation : 504 ft


KRME - Griffiss International

CURRENT METAR :
  • 222353Z 28010KT 10SM FEW060 14/08 A2990 RMK AO2 SLP124 60001 T01440083 10161 20133 53020

EXPIRED METARs :
  • 222253Z 28013KT 10SM BKN055 15/09 A2988 RMK AO2 SLP116 T01500089
  • 222153Z 28010KT 10SM OVC050 14/09 A2986 RMK AO2 SLP109 T01440089

TAF KRME
Valid from the 23 at 00:00 until the 24 at 00:00 UTC


222320Z 2300/2324 29005KT P6SM SCT150
FM231600 27006G11KT P6SM FEW150
FM232200 27005KT P6SM SKC
KZBW FIR / North America



MET'MAP, your aeronautical weather chart ! - Copyright ORBIFLY December 2007 - Disclaimer

ORBIFLY MET'MAP TEAM :

Programming & Development : Alexandra Zaïnal
Concept & original design : Baudouin d'Aumeries
Assistance for programming : Marc-Olivier Méhu
Technical & hardware support : Manuel Goepfert

Contact : metmap@orbifly.com




SOURCES & CREDITS :

   NOAA       Earth
Advisory